Tracking 19145 objects as of 26-Apr-2018
HD Live streaming from Space Station
objects crossing your sky now

FENGYUN 1C DEB

Track FENGYUN 1C DEB now!
10-day predictions


NORAD ID: 41008
Int'l Code: 1999-025EXN
Perigee: 669.6 km
Apogee: 1,445.8 km
Inclination: 99.4 °
Period: 106.2 minutes
Semi major axis: 7428 km
RCS: Unknown
Launch date: May 10, 1999
Source: People's Republic of China (PRC)
Launch site: Taiyaun Space Center, China (TSC)

Note: This is SATELLITE DEBRIS
aabbcc
Your satellite tracking list
Your tracking list is empty




NASA's NSSDC Master Catalog

Two Line Element Set (TLE):
1 41008U 99025EXN 18113.47798413  .00000140  00000-0  10656-3 0  9991
2 41008  99.4475   4.8116 0522384  95.8088 270.2824 13.55921185185958
Source of the keplerian elements: AFSPC